星链-31489 (STARLINK-31489 )

导读 | 豆包AI

STARLINK-31489是美国SpaceX公司星链(Starlink)星座的卫星,于2024年3月24日发射入轨,属于星链第二代低轨卫星,旨在为全球提供高速互联网接入服务。该卫星纳入星链星座组网,补充覆盖全球网络容量,支持消费级宽带服务,相关轨道参数可用于卫星仿真与轨道分析,推动低轨卫星通信技术发展。

Basic Information
目录编号:
59300
目录名称:
STARLINK-31489
国际标识:
2024-056E
轨道中心:
EARTH
卫星名称:
星链-31489
卫星全名:
星链-31489 (STARLINK-31489 )
卫星状态:
在轨 (已飞行721 天)
发射日期:
2024-03-24 UTC
国别 :
美国 (US)
星等 :
--
Orbit Information
数据来源 国际轨道数据 AOE轨道数据
星历时间 2026-03-15T18:07:40+0800
13小时前
查看轨道信息
2026-03-12T10:00:00+0800
3天前
查看轨道信息
半长轴 6861.221km 6861.204km
偏心率 0.0001229 0.0001852
轨道倾角 42.999° 43.005°
近地点辐角 246.982° 199.649°
升交点赤经 198.106° 216.988°
平近点角 113.090° 138.701°
近地点 482.24km 481.796km
远地点 483.928km 484.338km
周期 94.267分钟 94.267分钟
每日圈数 15.275685 15.275743
Detailed Information
固有亮度:
5
最大亮度:
0.3
卫星平台:
Starlink v2.0 mini
覆盖范围:
全球
运营商:
太空探索技术公司
运营商所在国:
美国
制造商(研发单位):
太空探索技术公司
制造商所在国:
美国
使用方式:
暂无
Satellite Introduction
星链(Starlink)计划是由太空探索技术公司(SpaceX)提出的一个巨型低轨卫星互联网星座项目,计划在2019年至2024年间在太空搭建由约1.2万颗卫星组成的“星链”网络,其中1584颗将部署在地球上空550千米处的近地轨道,并从2020年开始工作。该卫星仍在工作。
2D Orbit Map
3D Orbit Map
Orbit Altitude Analysis Chart
Orbit Inclination Analysis Chart
Orbit Comprehensive Analysis Chart
View Comprehensive Chart